| time (UTC) | temp F | wind direction | speed MPH | gust MPH | rain 1hr in | rain 24hr in | rain mn in | humidity % | barometer mb |
| 20260906052038 | 71 | 219 | 0.0 | 0.0 | 0.00 | 0.00 | 0.00 | 99 | 1011.1 |
| 20260906051533 | 71 | 219 | 0.0 | 0.0 | 0.00 | 0.00 | 0.00 | 99 | 1011.0 |
| 20260906051028 | 71 | 219 | 0.0 | 0.0 | 0.00 | 0.00 | 0.00 | 99 | 1010.8 |
| 20260906050523 | 71 | 218 | 0.0 | 0.0 | 0.00 | 0.00 | 0.00 | 99 | 1010.9 |
| 20260906050018 | 71 | 218 | 0.0 | 0.0 | 0.00 | 0.00 | 0.00 | 99 | 1010.9 |
| 20260906045516 | 71 | 220 | 0.0 | 0.0 | 0.00 | 0.00 | 0.00 | 99 | 1011.0 |
| 20260906045012 | 71 | 220 | 0.0 | 0.0 | 0.00 | 0.00 | 0.00 | 99 | 1011.0 |
| 20260906044508 | 71 | 220 | 0.0 | 0.0 | 0.00 | 0.00 | 0.00 | 99 | 1011.1 |
| 20260906044003 | 71 | 220 | 0.0 | 0.0 | 0.00 | 0.00 | 0.00 | 99 | 1011.1 |
| 20260906043459 | 71 | 220 | 0.0 | 0.0 | 0.00 | 0.00 | 0.00 | 99 | 1011.3 |
| 20260906042955 | 71 | 220 | 0.0 | 0.0 | 0.00 | 0.00 | 0.00 | 99 | 1011.1 |
| 20260906042453 | 71 | 220 | 0.0 | 0.0 | 0.00 | 0.00 | 0.00 | 99 | 1010.9 |
| 20260906041953 | 71 | 220 | 0.0 | 0.0 | 0.00 | 0.00 | 0.00 | 99 | 1011.2 |
| 20260906041450 | 71 | 220 | 0.0 | 0.0 | 0.00 | 0.00 | 0.00 | 99 | 1011.0 |
| 20260906040949 | 71 | 220 | 0.0 | 0.0 | 0.00 | 0.00 | 0.00 | 99 | 1011.1 |
| 20260906040444 | 71 | 220 | 0.0 | 0.0 | 0.00 | 0.00 | 0.00 | 99 | 1011.3 |
| 20260906035939 | 71 | 220 | 0.0 | 0.0 | 0.00 | 0.40 | 0.40 | 99 | 1011.2 |
| 20260906035435 | 71 | 220 | 0.0 | 0.0 | 0.00 | 0.40 | 0.40 | 99 | 1011.5 |
| 20260906034930 | 71 | 220 | 0.0 | 0.0 | 0.00 | 0.40 | 0.40 | 99 | 1011.4 |
| 20260906034425 | 71 | 220 | 0.0 | 0.0 | 0.00 | 0.40 | 0.40 | 99 | 1011.3 |
| 20260906033920 | 71 | 220 | 0.0 | 0.0 | 0.00 | 0.40 | 0.40 | 98 | 1011.5 |
| 20260906033415 | 71 | 220 | 0.0 | 0.0 | 0.00 | 0.40 | 0.40 | 98 | 1011.3 |
| 20260906032910 | 71 | 220 | 0.0 | 0.0 | 0.00 | 0.40 | 0.40 | 98 | 1011.4 |
| 20260906032407 | 71 | 220 | 0.0 | 0.0 | 0.00 | 0.40 | 0.40 | 98 | 1011.4 |
| 20260906031901 | 71 | 220 | 0.0 | 0.0 | 0.00 | 0.40 | 0.40 | 98 | 1011.5 |
| 20260906031356 | 71 | 220 | 0.0 | 0.0 | 0.00 | 0.40 | 0.40 | 98 | 1011.5 |
| 20260906030851 | 71 | 214 | 0.0 | 0.0 | 0.00 | 0.40 | 0.40 | 98 | 1011.5 |
| 20260906030346 | 71 | 214 | 0.0 | 0.0 | 0.00 | 0.40 | 0.40 | 98 | 1011.5 |
| 20260906025841 | 71 | 214 | 0.0 | 0.0 | 0.00 | 0.40 | 0.40 | 98 | 1011.6 |
| 20260906025335 | 71 | 214 | 0.0 | 0.0 | 0.00 | 0.40 | 0.40 | 98 | 1011.3 |
| 20260906024834 | 71 | 214 | 0.0 | 0.0 | 0.00 | 0.40 | 0.40 | 98 | 1011.4 |
| 20260906024333 | 71 | 214 | 0.0 | 0.0 | 0.00 | 0.40 | 0.40 | 98 | 1011.4 |
| 20260906023829 | 71 | 214 | 0.0 | 0.0 | 0.00 | 0.40 | 0.40 | 98 | 1011.1 |
| 20260906023325 | 71 | 214 | 0.0 | 0.0 | 0.00 | 0.40 | 0.40 | 98 | 1011.0 |
| 20260906022820 | 71 | 214 | 0.0 | 0.0 | 0.00 | 0.40 | 0.40 | 98 | 1011.1 |
| 20260906022315 | 72 | 214 | 0.0 | 0.0 | 0.00 | 0.40 | 0.40 | 98 | 1011.0 |
| 20260906021811 | 72 | 214 | 0.0 | 0.0 | 0.00 | 0.40 | 0.40 | 98 | 1011.0 |
| 20260906021310 | 72 | 214 | 0.0 | 0.0 | 0.00 | 0.40 | 0.40 | 98 | 1011.0 |
| 20260906020804 | 72 | 214 | 0.0 | 0.0 | 0.00 | 0.40 | 0.40 | 98 | 1011.1 |
| 20260906020304 | 72 | 214 | 0.0 | 0.0 | 0.00 | 0.40 | 0.40 | 98 | 1011.2 |
| 20260906015759 | 72 | 214 | 0.0 | 0.0 | 0.00 | 0.40 | 0.40 | 98 | 1011.0 |
| 20260906015257 | 72 | 214 | 0.0 | 0.0 | 0.00 | 0.40 | 0.40 | 98 | 1011.1 |
| 20260906014752 | 72 | 214 | 0.0 | 0.0 | 0.00 | 0.40 | 0.40 | 98 | 1010.8 |
| 20260906014248 | 72 | 214 | 0.0 | 0.0 | 0.00 | 0.40 | 0.40 | 98 | 1010.9 |
| 20260906013744 | 72 | 214 | 0.0 | 0.0 | 0.00 | 0.40 | 0.40 | 98 | 1010.9 |
| 20260906013243 | 72 | 214 | 0.0 | 0.0 | 0.00 | 0.40 | 0.40 | 98 | 1011.0 |
| 20260906012739 | 72 | 214 | 0.0 | 0.0 | 0.00 | 0.40 | 0.40 | 98 | 1011.0 |
| 20260906012234 | 72 | 214 | 0.0 | 0.0 | 0.00 | 0.40 | 0.40 | 98 | 1010.7 |
| 20260906011729 | 72 | 214 | 0.0 | 0.0 | 0.00 | 0.40 | 0.40 | 98 | 1010.7 |
| 20260906011228 | 72 | 214 | 0.0 | 0.0 | 0.00 | 0.40 | 0.40 | 98 | 1010.7 |
| 20260906010724 | 72 | 214 | 0.0 | 0.0 | 0.00 | 0.40 | 0.40 | 98 | 1010.8 |
| 20260906010221 | 72 | 214 | 0.0 | 0.0 | 0.00 | 0.40 | 0.40 | 98 | 1010.9 |
| 20260906005721 | 72 | 214 | 0.0 | 0.0 | 0.00 | 0.40 | 0.40 | 97 | 1011.0 |
| 20260906005214 | 72 | 214 | 0.0 | 0.0 | 0.00 | 0.40 | 0.40 | 97 | 1011.3 |
| 20260906004713 | 72 | 214 | 0.0 | 0.0 | 0.00 | 0.40 | 0.40 | 97 | 1010.9 |
| 20260906004203 | 72 | 214 | 0.0 | 0.0 | 0.00 | 0.40 | 0.40 | 97 | 1010.9 |
| 20260906003658 | 72 | 214 | 0.0 | 0.0 | 0.00 | 0.40 | 0.40 | 97 | 1010.7 |
| 20260906003154 | 72 | 214 | 0.0 | 0.0 | 0.00 | 0.40 | 0.40 | 97 | 1010.7 |
| 20260906002654 | 72 | 214 | 0.0 | 0.0 | 0.00 | 0.40 | 0.40 | 97 | 1010.7 |
| 20260906002148 | 72 | 214 | 0.0 | 0.0 | 0.00 | 0.40 | 0.40 | 97 | 1010.7 |
| 20260906001644 | 72 | 214 | 0.0 | 0.0 | 0.00 | 0.40 | 0.40 | 97 | 1010.8 |
| 20260906001143 | 72 | 214 | 0.0 | 0.0 | 0.00 | 0.40 | 0.40 | 96 | 1011.0 |
| 20260906000639 | 73 | 214 | 0.0 | 0.0 | 0.00 | 0.40 | 0.40 | 96 | 1010.6 |
| 20260906000135 | 73 | 212 | 0.0 | 0.0 | 0.00 | 0.40 | 0.40 | 96 | 1010.7 |
| 20260905235633 | 73 | 221 | 0.0 | 0.0 | 0.00 | 0.40 | 0.40 | 96 | 1010.8 |
| 20260905235129 | 73 | 218 | 0.0 | 0.0 | 0.00 | 0.40 | 0.40 | 96 | 1010.5 |
| 20260905234624 | 73 | 218 | 0.0 | 0.0 | 0.00 | 0.40 | 0.40 | 95 | 1010.5 |
| 20260905234120 | 73 | 218 | 0.0 | 0.0 | 0.00 | 0.40 | 0.40 | 95 | 1010.2 |
| 20260905233614 | 73 | 218 | 0.0 | 0.0 | 0.00 | 0.40 | 0.40 | 95 | 1010.3 |
| 20260905233108 | 73 | 218 | 0.0 | 0.0 | 0.00 | 0.40 | 0.40 | 94 | 1010.1 |
| 20260905232604 | 73 | 218 | 0.0 | 0.0 | 0.00 | 0.40 | 0.40 | 93 | 1010.3 |
| 20260905232100 | 74 | 218 | 0.0 | 0.0 | 0.00 | 0.40 | 0.40 | 93 | 1009.8 |
| 20260905231554 | 74 | 222 | 0.0 | 0.0 | 0.00 | 0.40 | 0.40 | 93 | 1009.7 |
| 20260905231051 | 74 | 219 | 0.0 | 0.0 | 0.00 | 0.40 | 0.40 | 93 | 1009.6 |
| 20260905230551 | 73 | 218 | 0.0 | 0.0 | 0.00 | 0.40 | 0.40 | 94 | 1009.8 |
| 20260905230049 | 73 | 222 | 0.0 | 0.0 | 0.00 | 0.40 | 0.40 | 94 | 1009.6 |
| 20260905225548 | 73 | 221 | 0.0 | 0.0 | 0.00 | 0.40 | 0.40 | 93 | 1009.4 |
| 20260905225043 | 74 | 221 | 0.0 | 0.0 | 0.00 | 0.40 | 0.40 | 92 | 1009.6 |
| 20260905224538 | 74 | 218 | 0.0 | 0.0 | 0.00 | 0.40 | 0.40 | 91 | 1009.6 |
| 20260905224037 | 74 | 211 | 0.0 | 0.0 | 0.00 | 0.40 | 0.40 | 92 | 1009.3 |
| 20260905223535 | 75 | 215 | 0.0 | 0.0 | 0.00 | 0.40 | 0.40 | 89 | 1009.6 |
| 20260905223031 | 75 | 219 | 0.0 | 0.0 | 0.00 | 0.40 | 0.40 | 87 | 1009.4 |
| 20260905222531 | 75 | 221 | 0.0 | 0.0 | 0.00 | 0.40 | 0.40 | 88 | 1009.6 |
| 20260905222026 | 75 | 220 | 0.0 | 0.0 | 0.00 | 0.40 | 0.40 | 87 | 1009.3 |
| 20260905221522 | 75 | 216 | 0.0 | 0.0 | 0.00 | 0.40 | 0.40 | 86 | 1009.4 |
| 20260905221018 | 75 | 228 | 0.0 | 0.0 | 0.00 | 0.40 | 0.40 | 89 | 1009.6 |
| 20260905220514 | 75 | 222 | 0.0 | 0.0 | 0.00 | 0.40 | 0.40 | 90 | 1009.4 |
| 20260905220009 | 75 | 220 | 0.0 | 0.0 | 0.00 | 0.40 | 0.40 | 92 | 1009.5 |
| 20260905215504 | 74 | 216 | 0.0 | 0.0 | 0.00 | 0.40 | 0.40 | 90 | 1009.3 |
| 20260905214959 | 74 | 216 | 0.0 | 0.0 | 0.00 | 0.40 | 0.40 | 94 | 1009.5 |
| 20260905214450 | 74 | 256 | 0.0 | 0.0 | 0.00 | 0.40 | 0.40 | 95 | 1009.3 |
| 20260905213950 | 74 | 225 | 0.0 | 0.0 | 0.00 | 0.40 | 0.40 | 97 | 1009.4 |
| 20260905213446 | 74 | 221 | 0.0 | 0.0 | 0.00 | 0.40 | 0.40 | 97 | 1009.2 |
| 20260905212941 | 74 | 214 | 0.0 | 0.0 | 0.00 | 0.40 | 0.40 | 98 | 1009.4 |
| 20260905212436 | 74 | 222 | 0.0 | 0.0 | 0.00 | 0.40 | 0.40 | 98 | 1009.4 |
| 20260905211935 | 74 | 216 | 0.0 | 0.0 | 0.00 | 0.40 | 0.40 | 97 | 1009.6 |
| 20260905211431 | 74 | 216 | 0.0 | 0.0 | 0.00 | 0.40 | 0.40 | 98 | 1009.8 |
| 20260905210927 | 73 | 215 | 0.0 | 0.0 | 0.00 | 0.40 | 0.40 | 98 | 1010.3 |
| 20260905210427 | 73 | 215 | 0.0 | 0.0 | 0.00 | 0.40 | 0.40 | 98 | 1010.5 |
| 20260905205926 | 72 | 220 | 0.0 | 0.0 | 0.05 | 0.40 | 0.40 | 97 | 1010.3 |
| 20260905205421 | 72 | 219 | 0.0 | 0.0 | 0.12 | 0.40 | 0.40 | 97 | 1010.4 |
| 20260905204920 | 71 | 218 | 0.0 | 0.0 | 0.12 | 0.39 | 0.39 | 97 | 1010.9 |
| 20260905204417 | 71 | 211 | 0.0 | 0.0 | 0.26 | 0.39 | 0.39 | 97 | 1011.1 |
| 20260905203915 | 71 | 215 | 0.0 | 0.0 | 0.19 | 0.37 | 0.37 | 97 | 1010.9 |
| 20260905203411 | 71 | 216 | 0.0 | 0.0 | 0.05 | 0.35 | 0.35 | 97 | 1010.9 |
| 20260905202906 | 71 | 218 | 0.0 | 0.0 | 0.00 | 0.34 | 0.34 | 97 | 1011.2 |
| 20260905202401 | 70 | 216 | 0.0 | 0.0 | 0.00 | 0.34 | 0.34 | 96 | 1011.1 |
| 20260905201856 | 70 | 219 | 0.0 | 0.0 | 0.00 | 0.34 | 0.34 | 96 | 1011.0 |
| 20260905201352 | 70 | 218 | 0.0 | 0.0 | 0.00 | 0.34 | 0.34 | 96 | 1010.9 |
| 20260905200851 | 70 | 221 | 0.0 | 0.0 | 0.00 | 0.34 | 0.34 | 96 | 1010.6 |
| 20260905200348 | 70 | 202 | 0.0 | 0.0 | 0.07 | 0.34 | 0.34 | 95 | 1010.4 |
| 20260905195846 | 69 | 219 | 0.0 | 0.0 | 0.07 | 0.34 | 0.34 | 94 | 1010.5 |
| 20260905195341 | 70 | 198 | 0.0 | 0.0 | 0.59 | 0.33 | 0.33 | 94 | 1010.5 |
| 20260905194837 | 70 | 214 | 0.0 | 0.0 | 1.79 | 0.33 | 0.33 | 91 | 1010.5 |
| 20260905194336 | 73 | 304 | 0.0 | 0.0 | 1.61 | 0.27 | 0.27 | 83 | 1011.3 |
| 20260905193836 | 84 | 254 | 0.0 | 0.0 | 0.35 | 0.06 | 0.06 | 65 | 1012.3 |
| 20260905193330 | 88 | 202 | 0.0 | 0.0 | 0.00 | 0.00 | 0.00 | 59 | 1010.7 |
| 20260905192827 | 89 | 209 | 0.0 | 0.0 | 0.00 | 0.00 | 0.00 | 64 | 1010.4 |
| 20260905192322 | 90 | 214 | 0.0 | 0.0 | 0.00 | 0.00 | 0.00 | 62 | 1010.1 |
| 20260905191821 | 90 | 214 | 0.0 | 0.0 | 0.00 | 0.00 | 0.00 | 61 | 1010.1 |
| 20260905191320 | 92 | 216 | 0.0 | 0.0 | 0.00 | 0.00 | 0.00 | 58 | 1010.0 |
| 20260905190819 | 93 | 227 | 0.0 | 0.0 | 0.00 | 0.00 | 0.00 | 53 | 1009.6 |
| 20260905190313 | 93 | 227 | 0.0 | 0.0 | 0.00 | 0.00 | 0.00 | 53 | 1009.6 |
| 20260905185812 | 92 | 225 | 0.0 | 0.0 | 0.00 | 0.00 | 0.00 | 52 | 1009.8 |
| 20260905185307 | 92 | 240 | 0.0 | 0.0 | 0.00 | 0.00 | 0.00 | 53 | 1009.8 |
| 20260905184800 | 93 | 221 | 0.0 | 0.0 | 0.00 | 0.00 | 0.00 | 52 | 1010.0 |
| 20260905184254 | 93 | 223 | 0.0 | 0.0 | 0.00 | 0.00 | 0.00 | 52 | 1010.2 |
| 20260905183753 | 94 | 223 | 0.0 | 0.0 | 0.00 | 0.00 | 0.00 | 51 | 1010.0 |
| 20260905183248 | 95 | 222 | 0.0 | 0.0 | 0.00 | 0.00 | 0.00 | 49 | 1009.8 |
| 20260905182748 | 96 | 215 | 0.0 | 0.0 | 0.00 | 0.00 | 0.00 | 47 | 1010.1 |
| 20260905182242 | 96 | 214 | 0.0 | 0.0 | 0.00 | 0.00 | 0.00 | 48 | 1010.2 |
| 20260905181737 | 97 | 227 | 0.0 | 0.0 | 0.00 | 0.00 | 0.00 | 45 | 1010.2 |
| 20260905181236 | 99 | 230 | 0.0 | 0.0 | 0.00 | 0.00 | 0.00 | 43 | 1010.5 |
| 20260905180731 | 98 | 215 | 0.0 | 0.0 | 0.00 | 0.00 | 0.00 | 46 | 1010.6 |
| 20260905180226 | 97 | 230 | 0.0 | 0.0 | 0.00 | 0.00 | 0.00 | 45 | 1010.6 |
| 20260905175721 | 96 | 249 | 0.0 | 0.0 | 0.00 | 0.00 | 0.00 | 45 | 1010.6 |
| 20260905175215 | 98 | 243 | 0.0 | 0.0 | 0.00 | 0.00 | 0.00 | 46 | 1010.8 |
| 20260905174711 | 95 | 229 | 0.0 | 0.0 | 0.00 | 0.00 | 0.00 | 47 | 1010.9 |
| 20260905174206 | 94 | 231 | 0.0 | 0.0 | 0.00 | 0.00 | 0.00 | 48 | 1010.9 |
| 20260905173703 | 94 | 230 | 0.0 | 0.0 | 0.00 | 0.00 | 0.00 | 48 | 1011.2 |
| 20260905173158 | 95 | 234 | 0.0 | 0.0 | 0.00 | 0.00 | 0.00 | 47 | 1011.3 |
| 20260905172657 | 94 | 229 | 0.0 | 0.0 | 0.00 | 0.00 | 0.00 | 51 | 1011.4 |
| 20260905172151 | 95 | 233 | 0.0 | 0.0 | 0.00 | 0.00 | 0.00 | 53 | 1011.4 |
| 20260905171647 | 96 | 220 | 0.0 | 0.0 | 0.00 | 0.00 | 0.00 | 53 | 1011.5 |
| 20260905171143 | 95 | 228 | 0.0 | 0.0 | 0.00 | 0.00 | 0.00 | 54 | 1011.7 |
| 20260905170640 | 94 | 221 | 0.0 | 0.0 | 0.00 | 0.00 | 0.00 | 56 | 1011.7 |
| 20260905170135 | 94 | 211 | 0.0 | 0.0 | 0.00 | 0.00 | 0.00 | 57 | 1011.8 |
| 20260905165635 | 93 | 230 | 0.0 | 0.0 | 0.00 | 0.00 | 0.00 | 58 | 1011.6 |
| 20260905165130 | 93 | 224 | 0.0 | 0.0 | 0.00 | 0.00 | 0.00 | 58 | 1011.8 |
| 20260905164625 | 93 | 225 | 0.0 | 0.0 | 0.00 | 0.00 | 0.00 | 56 | 1011.9 |
| 20260905164124 | 92 | 225 | 0.0 | 0.0 | 0.00 | 0.00 | 0.00 | 58 | 1011.9 |
| 20260905163621 | 93 | 222 | 0.0 | 0.0 | 0.00 | 0.00 | 0.00 | 59 | 1012.2 |
| 20260905163117 | 91 | 215 | 0.0 | 0.0 | 0.00 | 0.00 | 0.00 | 61 | 1012.2 |
| 20260905162613 | 91 | 211 | 0.0 | 0.0 | 0.00 | 0.00 | 0.00 | 61 | 1012.2 |
| 20260905162112 | 91 | 172 | 0.0 | 0.0 | 0.00 | 0.00 | 0.00 | 63 | 1012.4 |
| 20260905161611 | 90 | 214 | 0.0 | 0.0 | 0.00 | 0.00 | 0.00 | 64 | 1012.3 |
| 20260905161109 | 90 | 201 | 0.0 | 0.0 | 0.00 | 0.00 | 0.00 | 65 | 1012.4 |
| 20260905160609 | 90 | 226 | 0.0 | 0.0 | 0.00 | 0.00 | 0.00 | 65 | 1012.3 |
| 20260905155557 | 89 | 212 | 0.0 | 0.0 | 0.00 | 0.00 | 0.00 | 67 | 1012.5 |
| 20260905155056 | 89 | 216 | 0.0 | 0.0 | 0.00 | 0.00 | 0.00 | 67 | 1012.5 |
| 20260905154551 | 89 | 249 | 0.0 | 0.0 | 0.00 | 0.00 | 0.00 | 67 | 1012.4 |
| 20260905154047 | 88 | 224 | 0.0 | 0.0 | 0.00 | 0.00 | 0.00 | 69 | 1012.4 |
| 20260905153543 | 88 | 220 | 0.0 | 0.0 | 0.00 | 0.00 | 0.00 | 69 | 1012.5 |
| 20260905153043 | 87 | 206 | 0.0 | 0.0 | 0.00 | 0.00 | 0.00 | 69 | 1012.7 |
| 20260905152537 | 87 | 227 | 0.0 | 0.0 | 0.00 | 0.00 | 0.00 | 69 | 1012.7 |
| 20260905152032 | 87 | 225 | 0.0 | 0.0 | 0.00 | 0.00 | 0.00 | 71 | 1012.6 |
| 20260905151527 | 86 | 215 | 0.0 | 0.0 | 0.00 | 0.00 | 0.00 | 72 | 1012.6 |
| 20260905151023 | 86 | 240 | 0.0 | 0.0 | 0.00 | 0.00 | 0.00 | 72 | 1012.5 |
| 20260905150518 | 86 | 224 | 0.0 | 0.0 | 0.00 | 0.00 | 0.00 | 71 | 1012.6 |
| 20260905150016 | 86 | 205 | 0.0 | 0.0 | 0.00 | 0.00 | 0.00 | 73 | 1012.6 |
| 20260905145509 | 85 | 234 | 0.0 | 0.0 | 0.00 | 0.00 | 0.00 | 74 | 1012.5 |
| 20260905145009 | 85 | 233 | 0.0 | 0.0 | 0.00 | 0.00 | 0.00 | 75 | 1012.7 |
| 20260905144504 | 85 | 283 | 0.0 | 0.0 | 0.00 | 0.00 | 0.00 | 75 | 1012.3 |
| 20260905144003 | 84 | 224 | 0.0 | 0.0 | 0.00 | 0.00 | 0.00 | 75 | 1012.6 |
| 20260905143502 | 84 | 218 | 0.0 | 0.0 | 0.00 | 0.00 | 0.00 | 75 | 1012.6 |
| 20260905142957 | 84 | 221 | 0.0 | 0.0 | 0.00 | 0.00 | 0.00 | 76 | 1012.7 |
| 20260905142455 | 83 | 180 | 0.0 | 0.0 | 0.00 | 0.00 | 0.00 | 78 | 1012.9 |
| 20260905141951 | 83 | 219 | 0.0 | 0.0 | 0.00 | 0.00 | 0.00 | 77 | 1012.8 |
| 20260905141446 | 83 | 213 | 0.0 | 0.0 | 0.00 | 0.00 | 0.00 | 79 | 1012.9 |
| 20260905140942 | 83 | 213 | 0.0 | 0.0 | 0.00 | 0.00 | 0.00 | 78 | 1012.8 |
| 20260905140437 | 82 | 277 | 0.0 | 0.0 | 0.00 | 0.00 | 0.00 | 78 | 1012.7 |
| 20260905135936 | 82 | 213 | 0.0 | 0.0 | 0.00 | 0.00 | 0.00 | 78 | 1012.9 |
| 20260905135432 | 82 | 214 | 0.0 | 0.0 | 0.00 | 0.00 | 0.00 | 79 | 1012.8 |
| 20260905134927 | 82 | 214 | 0.0 | 0.0 | 0.00 | 0.00 | 0.00 | 79 | 1013.0 |
| 20260905134426 | 82 | 220 | 0.0 | 0.0 | 0.00 | 0.00 | 0.00 | 80 | 1012.9 |
| 20260905133921 | 81 | 216 | 0.0 | 0.0 | 0.00 | 0.00 | 0.00 | 80 | 1013.0 |
| 20260905133421 | 81 | 230 | 0.0 | 0.0 | 0.00 | 0.00 | 0.00 | 80 | 1013.1 |
| 20260905132920 | 81 | 208 | 0.0 | 0.0 | 0.00 | 0.00 | 0.00 | 81 | 1012.8 |
| 20260905132415 | 81 | 180 | 0.0 | 0.0 | 0.00 | 0.00 | 0.00 | 81 | 1013.1 |
| 20260905131910 | 80 | 261 | 0.0 | 0.0 | 0.00 | 0.00 | 0.00 | 82 | 1012.9 |
| 20260905131406 | 80 | 216 | 0.0 | 0.0 | 0.00 | 0.00 | 0.00 | 83 | 1013.2 |
| 20260905130907 | 79 | 216 | 0.0 | 0.0 | 0.00 | 0.00 | 0.00 | 84 | 1013.0 |
| 20260905130406 | 79 | 214 | 0.0 | 0.0 | 0.00 | 0.00 | 0.00 | 84 | 1013.0 |
| 20260905125901 | 79 | 212 | 0.0 | 0.0 | 0.00 | 0.00 | 0.00 | 84 | 1013.1 |
| 20260905125355 | 79 | 232 | 0.0 | 0.0 | 0.00 | 0.00 | 0.00 | 85 | 1013.0 |
| 20260905124851 | 78 | 229 | 0.0 | 0.0 | 0.00 | 0.00 | 0.00 | 85 | 1012.9 |
| 20260905124347 | 79 | 207 | 0.0 | 0.0 | 0.00 | 0.00 | 0.00 | 85 | 1013.0 |
| 20260905123842 | 78 | 215 | 0.0 | 0.0 | 0.00 | 0.00 | 0.00 | 86 | 1013.3 |
| 20260905123339 | 78 | 210 | 0.0 | 0.0 | 0.00 | 0.00 | 0.00 | 86 | 1013.3 |
| 20260905122838 | 78 | 219 | 0.0 | 0.0 | 0.00 | 0.00 | 0.00 | 86 | 1013.1 |
| 20260905122338 | 78 | 214 | 0.0 | 0.0 | 0.00 | 0.00 | 0.00 | 87 | 1013.0 |
| 20260905121833 | 77 | 239 | 0.0 | 0.0 | 0.00 | 0.00 | 0.00 | 88 | 1013.0 |
| 20260905121330 | 77 | 219 | 0.0 | 0.0 | 0.00 | 0.00 | 0.00 | 88 | 1013.2 |
| 20260905120828 | 77 | 214 | 0.0 | 0.0 | 0.00 | 0.00 | 0.00 | 87 | 1013.0 |
| 20260905120323 | 77 | 220 | 0.0 | 0.0 | 0.00 | 0.00 | 0.00 | 88 | 1013.0 |
| 20260905115818 | 77 | 218 | 0.0 | 0.0 | 0.00 | 0.00 | 0.00 | 88 | 1012.6 |
| 20260905115317 | 76 | 220 | 0.0 | 0.0 | 0.00 | 0.00 | 0.00 | 90 | 1012.8 |
| 20260905114818 | 75 | 218 | 0.0 | 0.0 | 0.00 | 0.00 | 0.00 | 92 | 1012.8 |
| 20260905114316 | 75 | 218 | 0.0 | 0.0 | 0.00 | 0.00 | 0.00 | 93 | 1012.8 |
| 20260905113816 | 75 | 217 | 0.0 | 0.0 | 0.00 | 0.00 | 0.00 | 93 | 1012.6 |
| 20260905113312 | 74 | 217 | 0.0 | 0.0 | 0.00 | 0.00 | 0.00 | 93 | 1012.8 |
| 20260905112807 | 74 | 217 | 0.0 | 0.0 | 0.00 | 0.00 | 0.00 | 93 | 1012.6 |
| 20260905112305 | 74 | 216 | 0.0 | 0.0 | 0.00 | 0.00 | 0.00 | 93 | 1012.4 |
| 20260905111756 | 74 | 220 | 0.0 | 0.0 | 0.00 | 0.00 | 0.00 | 93 | 1012.3 |
| 20260905111251 | 74 | 218 | 0.0 | 0.0 | 0.00 | 0.00 | 0.00 | 93 | 1012.2 |
| 20260905110750 | 74 | 216 | 0.0 | 0.0 | 0.00 | 0.00 | 0.00 | 93 | 1012.0 |
| 20260905110244 | 74 | 216 | 0.0 | 0.0 | 0.00 | 0.00 | 0.00 | 93 | 1012.0 |
| 20260905105740 | 74 | 219 | 0.0 | 0.0 | 0.00 | 0.00 | 0.00 | 93 | 1012.0 |
| 20260905105239 | 74 | 218 | 0.0 | 0.0 | 0.00 | 0.00 | 0.00 | 93 | 1012.1 |
| 20260905104734 | 75 | 218 | 0.0 | 0.0 | 0.00 | 0.00 | 0.00 | 92 | 1011.8 |
| 20260905104230 | 75 | 218 | 0.0 | 0.0 | 0.00 | 0.00 | 0.00 | 92 | 1011.7 |
| 20260905103725 | 75 | 219 | 0.0 | 0.0 | 0.00 | 0.00 | 0.00 | 92 | 1011.6 |
| 20260905103221 | 75 | 220 | 0.0 | 0.0 | 0.00 | 0.00 | 0.00 | 92 | 1011.7 |
| 20260905102716 | 75 | 220 | 0.0 | 0.0 | 0.00 | 0.00 | 0.00 | 92 | 1011.6 |
| 20260905102213 | 75 | 217 | 0.0 | 0.0 | 0.00 | 0.00 | 0.00 | 92 | 1011.6 |
| 20260905101711 | 75 | 218 | 0.0 | 0.0 | 0.00 | 0.00 | 0.00 | 92 | 1011.5 |
| 20260905101210 | 75 | 218 | 0.0 | 0.0 | 0.00 | 0.00 | 0.00 | 92 | 1011.5 |
| 20260905100706 | 75 | 217 | 0.0 | 0.0 | 0.00 | 0.00 | 0.00 | 91 | 1011.6 |
| 20260905100201 | 75 | 217 | 0.0 | 0.0 | 0.00 | 0.00 | 0.00 | 91 | 1011.7 |
| 20260905095701 | 75 | 289 | 0.0 | 0.0 | 0.00 | 0.00 | 0.00 | 91 | 1011.4 |
| 20260905095155 | 75 | 216 | 0.0 | 0.0 | 0.00 | 0.00 | 0.00 | 91 | 1011.6 |
| 20260905094650 | 75 | 217 | 0.0 | 0.0 | 0.00 | 0.00 | 0.00 | 91 | 1011.7 |
| 20260905094149 | 75 | 216 | 0.0 | 0.0 | 0.00 | 0.00 | 0.00 | 91 | 1011.5 |
| 20260905093644 | 75 | 216 | 0.0 | 0.0 | 0.00 | 0.00 | 0.00 | 91 | 1011.4 |
| 20260905093140 | 75 | 216 | 0.0 | 0.0 | 0.00 | 0.00 | 0.00 | 91 | 1011.6 |
| 20260905092640 | 75 | 216 | 0.0 | 0.0 | 0.00 | 0.00 | 0.00 | 91 | 1011.2 |
| 20260905092137 | 75 | 216 | 0.0 | 0.0 | 0.00 | 0.00 | 0.00 | 90 | 1011.3 |
| 20260905091636 | 75 | 216 | 0.0 | 0.0 | 0.00 | 0.00 | 0.00 | 90 | 1011.5 |
| 20260905091135 | 75 | 216 | 0.0 | 0.0 | 0.00 | 0.00 | 0.00 | 90 | 1011.5 |
| 20260905090630 | 76 | 216 | 0.0 | 0.0 | 0.00 | 0.00 | 0.00 | 90 | 1011.7 |
| 20260905090126 | 76 | 218 | 0.0 | 0.0 | 0.00 | 0.00 | 0.00 | 90 | 1011.6 |
| 20260905085624 | 75 | 217 | 0.0 | 0.0 | 0.00 | 0.00 | 0.00 | 90 | 1011.7 |
| 20260905085120 | 76 | 218 | 0.0 | 0.0 | 0.00 | 0.00 | 0.00 | 90 | 1011.9 |
| 20260905084619 | 76 | 217 | 0.0 | 0.0 | 0.00 | 0.00 | 0.00 | 90 | 1011.9 |
| 20260905084114 | 76 | 217 | 0.0 | 0.0 | 0.00 | 0.00 | 0.00 | 90 | 1011.8 |
| 20260905083609 | 76 | 217 | 0.0 | 0.0 | 0.00 | 0.00 | 0.00 | 90 | 1012.0 |
| 20260905083106 | 76 | 217 | 0.0 | 0.0 | 0.00 | 0.00 | 0.00 | 89 | 1011.9 |
| 20260905082600 | 76 | 217 | 0.0 | 0.0 | 0.00 | 0.00 | 0.00 | 89 | 1011.9 |
| 20260905082056 | 76 | 217 | 0.0 | 0.0 | 0.00 | 0.00 | 0.00 | 89 | 1012.0 |
| 20260905081555 | 76 | 217 | 0.0 | 0.0 | 0.00 | 0.00 | 0.00 | 89 | 1011.9 |
| 20260905081050 | 76 | 217 | 0.0 | 0.0 | 0.00 | 0.00 | 0.00 | 89 | 1012.0 |
| 20260905080544 | 76 | 219 | 0.0 | 0.0 | 0.00 | 0.00 | 0.00 | 89 | 1012.1 |
| 20260905080039 | 76 | 219 | 0.0 | 0.0 | 0.00 | 0.00 | 0.00 | 88 | 1012.3 |
| 20260905075532 | 76 | 219 | 0.0 | 0.0 | 0.00 | 0.00 | 0.00 | 88 | 1012.3 |
| 20260905075027 | 76 | 220 | 0.0 | 0.0 | 0.00 | 0.00 | 0.00 | 88 | 1012.4 |
| 20260905074521 | 76 | 219 | 0.0 | 0.0 | 0.00 | 0.00 | 0.00 | 88 | 1012.2 |
| 20260905074017 | 76 | 224 | 0.0 | 0.0 | 0.00 | 0.00 | 0.00 | 88 | 1012.2 |
| 20260905073506 | 76 | 254 | 0.0 | 0.0 | 0.00 | 0.00 | 0.00 | 87 | 1012.3 |
| 20260905073002 | 76 | 217 | 0.0 | 0.0 | 0.00 | 0.00 | 0.00 | 87 | 1012.1 |
| 20260905072456 | 77 | 218 | 0.0 | 0.0 | 0.00 | 0.00 | 0.00 | 87 | 1012.2 |
| 20260905071951 | 77 | 218 | 0.0 | 0.0 | 0.00 | 0.00 | 0.00 | 87 | 1012.5 |
| 20260905071448 | 77 | 218 | 0.0 | 0.0 | 0.00 | 0.00 | 0.00 | 86 | 1012.3 |
| 20260905070947 | 77 | 218 | 0.0 | 0.0 | 0.00 | 0.00 | 0.00 | 86 | 1012.2 |
| 20260905070444 | 77 | 214 | 0.0 | 0.0 | 0.00 | 0.00 | 0.00 | 85 | 1012.4 |
| 20260905065938 | 77 | 214 | 0.0 | 0.0 | 0.00 | 0.00 | 0.00 | 85 | 1012.3 |
| 20260905065436 | 77 | 214 | 0.0 | 0.0 | 0.00 | 0.00 | 0.00 | 85 | 1012.5 |
| 20260905064931 | 77 | 214 | 0.0 | 0.0 | 0.00 | 0.00 | 0.00 | 84 | 1012.7 |
| 20260905064427 | 77 | 217 | 0.0 | 0.0 | 0.00 | 0.00 | 0.00 | 84 | 1012.5 |
| 20260905063927 | 78 | 217 | 0.0 | 0.0 | 0.00 | 0.00 | 0.00 | 84 | 1012.7 |
| 20260905063422 | 78 | 217 | 0.0 | 0.0 | 0.00 | 0.00 | 0.00 | 83 | 1012.9 |
| 20260905062918 | 78 | 218 | 0.0 | 0.0 | 0.00 | 0.00 | 0.00 | 83 | 1012.8 |
| 20260905062412 | 78 | 211 | 0.0 | 0.0 | 0.00 | 0.00 | 0.00 | 82 | 1012.9 |
| 20260905061907 | 78 | 211 | 0.0 | 0.0 | 0.00 | 0.00 | 0.00 | 82 | 1012.8 |
| 20260905061401 | 78 | 211 | 0.0 | 0.0 | 0.00 | 0.00 | 0.00 | 81 | 1012.9 |
| 20260905060855 | 78 | 212 | 0.0 | 0.0 | 0.00 | 0.00 | 0.00 | 81 | 1013.1 |
| 20260905060352 | 79 | 212 | 0.0 | 0.0 | 0.00 | 0.00 | 0.00 | 82 | 1012.9 |
| 20260905055851 | 79 | 214 | 0.0 | 0.0 | 0.00 | 0.00 | 0.00 | 81 | 1012.9 |
| 20260905055346 | 79 | 218 | 0.0 | 0.0 | 0.00 | 0.00 | 0.00 | 81 | 1013.1 |
| 20260905054845 | 79 | 212 | 0.0 | 0.0 | 0.00 | 0.00 | 0.00 | 81 | 1013.0 |
| 20260905054342 | 79 | 221 | 0.0 | 0.0 | 0.00 | 0.00 | 0.00 | 81 | 1013.1 |
| 20260905053841 | 79 | 214 | 0.0 | 0.0 | 0.00 | 0.00 | 0.00 | 81 | 1013.1 |
| 20260905053336 | 79 | 214 | 0.0 | 0.0 | 0.00 | 0.00 | 0.00 | 81 | 1013.3 |
| 20260905052831 | 79 | 213 | 0.0 | 0.0 | 0.00 | 0.00 | 0.00 | 82 | 1013.4 |